Regional Weather Roundup
Issued by NWS

Home | Current Version | Previous Version | Text Only | Print | Product List | Glossary On
Versions: 1 2 3 4 5 6 7 8 9 10 11 12 13 14 15 16 17 18 19 20 21 22 23 24 25 26 27 28 29 30 31 32 33 34 35 36 37 38 39 40 41 42 43 44 45 46 47 48 49 50
000
ASUS43 KTOP 192359
RWRKS

WEATHER ROUNDUP FOR KANSAS
NATIONAL WEATHER SERVICE GOODLAND KS
600 PM CST THU JAN 19 2017

NOTE:  "FAIR" INDICATES FEW OR NO CLOUDS BELOW 12,000 FEET WITH NO
SIGNIFICANT WEATHER AND/OR OBSTRUCTIONS TO VISIBILITY.

KSZ001>006-013>018-027>032-041>047-200100-
NORTHWEST KANSAS

CITY           SKY/WX    TMP DP  RH WIND       PRES   REMARKS
GOODLAND       CLOUDY    36  35  96 SE7       29.53S
6HR MIN TEMP:  32; 6HR MAX TEMP:  42;

HAYS           CLOUDY    44  42  93 NE5       29.59S
HILL CITY      MOCLDY    43  41  93 E7        29.58S
6HR MIN TEMP:  43; 6HR MAX TEMP:  47;

RUSSELL        CLOUDY    44  44 100 SE5       29.58S FOG
6HR MIN TEMP:  44; 6HR MAX TEMP:  47; 6HR PCP:  0.01;

$$

KSZ061>065-074>080-084>089-200100-
SOUTHWEST KANSAS

CITY           SKY/WX    TMP DP  RH WIND       PRES   REMARKS
DODGE CITY     CLOUDY    44  38  79 E3        29.56S
6HR MIN TEMP:  43; 6HR MAX TEMP:  45;

ELKHART          N/A     40  28  62 E8          N/A
GARDEN CITY    CLOUDY    42  36  79 CALM      29.56R
6HR MIN TEMP:  41; 6HR MAX TEMP:  44;

GREAT BEND     CLOUDY    45  43  93 E3        29.59S
LIBERAL        CLOUDY    43  37  81 CALM      29.58R
$$

KSZ066>073-081>083-090>101-200100-
SOUTHEAST KANSAS

CITY           SKY/WX    TMP DP  RH WIND       PRES   REMARKS
CHANUTE        CLOUDY    50  46  86 S7        29.62F
6HR MIN TEMP:  47; 6HR MAX TEMP:  51;

COFFEYVILLE    CLOUDY    50  46  86 S3        29.61F
6HR MIN TEMP:  49; 6HR MAX TEMP:  52;

HUTCHINSON     CLOUDY    47  45  93 E12       29.59S
6HR MIN TEMP:  46; 6HR MAX TEMP:  49;

MEDICINE LODGE   N/A     45  40  82 SW3       29.57S
NEWTON         CLOUDY    44  44 100 E7        29.61R FOG
PARSONS        CLOUDY    51  45  79 S3        29.62F
6HR MIN TEMP:  47; 6HR MAX TEMP:  52;

WICHITA INTL   CLOUDY    48  44  86 E9        29.59S
6HR MIN TEMP:  48; 6HR MAX TEMP:  52;

WICHITA JABRA  CLOUDY    46  45  96 E7        29.59F
6HR MIN TEMP:  46; 6HR MAX TEMP:  49;

WICHITA MCCONL MOCLDY    46  45  93 E8        29.58F
WINFIELD       CLOUDY    50  45  83 E5        29.59F
6HR MIN TEMP:  50; 6HR MAX TEMP:  54;

$$

KSZ007>012-019>026-033>040-048>060-102>105-200100-
NORTHEAST KANSAS

CITY           SKY/WX    TMP DP  RH WIND       PRES   REMARKS
CONCORDIA      FOG       43  43 100 E5        29.62S VSB 3/4
6HR MIN TEMP:  43; 6HR MAX TEMP:  46; 6HR PCP: TRACE;

EMPORIA        CLOUDY    46  45  96 SE5       29.62S
6HR MIN TEMP:  44; 6HR MAX TEMP:  47;

LAWRENCE       CLOUDY    47  46  97 SE6       29.64S
6HR MIN TEMP:  47; 6HR MAX TEMP:  48;

MANHATTAN      CLOUDY    46  44  93 S7        29.62S
6HR MIN TEMP:  46; 6HR MAX TEMP:  48; 6HR PCP:  0.01;

OLATHE IND     CLOUDY    47  46  97 SE6       29.64F
6HR MIN TEMP:  45; 6HR MAX TEMP:  48;

OLATHE EXE     CLOUDY    46  46 100 SE5       29.64F
6HR MIN TEMP:  44; 6HR MAX TEMP:  46;

SALINA         CLOUDY    46  45  96 E6        29.62S
6HR MIN TEMP:  46; 6HR MAX TEMP:  48;

TOPEKA BILLARD CLOUDY    47  44  90 SE6       29.64S
6HR MIN TEMP:  47; 6HR MAX TEMP:  49;

TOPEKA FORBES  CLOUDY    47  46  97 SE3       29.63F FOG
6HR MIN TEMP:  47; 6HR MAX TEMP:  48;

$$




USA.gov is the U.S. government's official web portal to all federal, state and local government web resources and services.